星链-1604 (STARLINK-1604 )

导读 | 星芒AI

STARLINK-1604 是 SpaceX 星链计划中的一颗低轨通信卫星,属于星链第三代(v1.5)卫星系列。该卫星于2023年发射,旨在为全球用户提供高速互联网服务。它运行在约540公里高的近地轨道,配备先进通信设备和激光链路,以提升网络连接效率。星链项目通过部署大量此类卫星,构建全球覆盖的宽带网络系统,尤其服务于偏远地区。STARLINK-1604 的加入进一步增强了星链星座的容量与稳定性。

基本信息
目录编号:
46122
目录名称:
STARLINK-1604
国际标识:
2020-057F
轨道中心:
EARTH
卫星名称:
星链-1604
卫星全名:
星链-1604 (STARLINK-1604 )
卫星状态:
已陨落 最后检测时间 2025-03-01
发射日期:
2020-08-18 UTC
国别 :
美国 (US)
星等 :
--
轨道信息
数据来源 国际轨道数据
星历时间: 2025-03-01T14:58:35+0800
轨道信息已过期290天
半长轴: 6518.972km
偏心率: 0.0004352
轨道倾角: 53.024°
近地点辐角 296.319°
升交点赤经 108.241°
平近点角 113.771°
近地点: 137.999km
远地点: 143.675km
周期: 87.303分钟
每日圈数: 16.494311
详细信息
固有亮度:
5
最大亮度:
2.5
卫星平台:
Starlink V1.0
覆盖范围:
全球
运营商:
太空探索技术公司
运营商所在国:
美国
制造商(研发单位):
太空探索技术公司
制造商所在国:
美国
使用方式:
暂无
卫星简介
星链(Starlink)计划是由太空探索技术公司(SpaceX)提出的一个巨型低轨卫星互联网星座项目,计划在2019年至2024年间在太空搭建由约1.2万颗卫星组成的“星链”网络,其中1584颗将部署在地球上空550千米处的近地轨道,并从2020年开始工作。该卫星仍在工作。